Weather History for KHKY - August, 2012

Change the Weather History Date:

Friday, August 10, 2012

  Actual Average Record
Temperature  
Mean Temperature 75 °F -  
Max Temperature 82 °F - - ()
Min Temperature 68 °F - - ()
Cooling Degree Days 10    
Growing Degree Days 25 (Base 50)    
Moisture  
Dew Point 68 °F    
Average Humidity 82    
Maximum Humidity 94    
Minimum Humidity 61    
Precipitation  
Precipitation 0.01 in - - ()
Sea Level Pressure  
Sea Level Pressure 29.83 in    
Wind  
Wind Speed 4 mph (SSW)    
Max Wind Speed 13 mph    
Max Gust Speed 18 mph    
Visibility 10 miles    
Events      
T = Trace of Precipitation, MM = Missing Value Source: NWS Daily Summary

Daily Weather History Graph

Daily Weather History Graph

Search for Another Location

Airport or City:

Trip Planner

Search our weather history database for the weather conditions in past years. The results will help you decide how hot, cold, wet, or windy it might be!

Date:

Astronomy

Aug. 10, 2012 Rise Set
Actual Time 6:40 AM EDT 8:20 PM EDT
Civil Twilight 6:13 AM EDT 8:47 PM EDT
Nautical Twilight 5:40 AM EDT 9:20 PM EDT
Astronomical Twilight 5:05 AM EDT 9:55 PM EDT
Moon 12:30 AM EDT (8/10) 2:56 PM EDT (8/10)
Length of Visible Light 14h 34m
Length of Day
13h 39m
Last Quarter, 42% of the Moon is Illuminated
Aug 10
Last Quarter
Aug 17
New
Aug 24
First Quarter
Aug 31
Full
Sep 8
Last Quarter

Hourly Weather History & Observations

Time (EDT) Temp. Heat Index Dew Point Humidity Pressure Visibility Wind Dir Wind Speed Gust Speed Precip Events Conditions
12:53 AM 68.0 °F - 66.0 °F 93% 29.83 in 10.0 mi Calm Calm - N/A   Mostly Cloudy
1:31 AM 68.0 °F - 66.2 °F 94% 29.89 in 10.0 mi Calm Calm - 0.00 in   Mostly Cloudy
1:53 AM 68.0 °F - 66.0 °F 93% 29.82 in 10.0 mi Calm Calm - 0.00 in   Overcast
2:12 AM 68.0 °F - 66.2 °F 94% 29.88 in 10.0 mi Calm Calm - N/A   Overcast
2:27 AM 68.0 °F - 66.2 °F 94% 29.87 in 10.0 mi Calm Calm - N/A   Overcast
2:53 AM 68.0 °F - 66.0 °F 93% 29.81 in 10.0 mi South 3.5 mph - N/A   Overcast
3:36 AM 68.0 °F - 66.2 °F 94% 29.87 in 10.0 mi SW 4.6 mph - N/A   Overcast
3:53 AM 68.0 °F - 66.0 °F 93% 29.80 in 10.0 mi SW 4.6 mph - N/A   Overcast
4:28 AM 68.0 °F - 66.2 °F 94% 29.86 in 10.0 mi SSW 5.8 mph - 0.00 in   Overcast
4:53 AM 68.0 °F - 66.0 °F 93% 29.80 in 10.0 mi South 4.6 mph - 0.00 in   Overcast
5:53 AM 68.0 °F - 66.0 °F 93% 29.80 in 10.0 mi SSW 4.6 mph - N/A   Overcast
6:53 AM 68.0 °F - 66.0 °F 93% 29.81 in 10.0 mi SW 5.8 mph - N/A   Overcast
7:53 AM 69.1 °F - 66.0 °F 90% 29.83 in 10.0 mi Calm Calm - N/A   Overcast
8:16 AM 69.8 °F - 66.2 °F 88% 29.89 in 10.0 mi SW 6.9 mph - 0.01 in   Overcast
8:53 AM 70.0 °F - 66.0 °F 87% 29.83 in 10.0 mi SW 4.6 mph - 0.01 in   Overcast
9:53 AM 72.0 °F - 66.9 °F 84% 29.83 in 10.0 mi South 5.8 mph - N/A   Overcast
10:22 AM 73.4 °F - 66.2 °F 78% 29.88 in 10.0 mi South 6.9 mph - N/A   Overcast
10:35 AM 73.4 °F - 66.2 °F 78% 29.88 in 10.0 mi SSW 5.8 mph - N/A   Overcast
10:53 AM 73.9 °F - 66.0 °F 76% 29.83 in 10.0 mi SSW 5.8 mph - N/A   Overcast
11:53 AM 75.9 °F - 66.9 °F 74% 29.83 in 10.0 mi South 5.8 mph - N/A   Mostly Cloudy
12:05 PM 77.0 °F - 68.0 °F 74% 29.88 in 10.0 mi Variable 4.6 mph - N/A   Scattered Clouds
12:53 PM 77.0 °F - 66.0 °F 69% 29.82 in 10.0 mi SSW 8.1 mph - N/A   Mostly Cloudy
1:22 PM 80.6 °F 82.7 °F 66.2 °F 61% 29.87 in 10.0 mi SSW 12.7 mph 18.4 mph N/A   Partly Cloudy
1:53 PM 82.0 °F 85.5 °F 69.1 °F 65% 29.81 in 10.0 mi SW 9.2 mph 18.4 mph N/A   Partly Cloudy
2:53 PM 82.0 °F 85.5 °F 69.1 °F 65% 29.79 in 10.0 mi South 9.2 mph - N/A   Clear
3:53 PM 82.0 °F 84.9 °F 68.0 °F 62% 29.77 in 10.0 mi South 12.7 mph - N/A   Partly Cloudy
4:53 PM 81.0 °F 84.1 °F 69.1 °F 67% 29.78 in 10.0 mi SSW 9.2 mph - N/A   Mostly Cloudy
5:53 PM 81.0 °F 84.1 °F 69.1 °F 67% 29.77 in 10.0 mi South 8.1 mph - N/A   Mostly Cloudy
6:53 PM 81.0 °F 84.1 °F 69.1 °F 67% 29.77 in 10.0 mi SSW 9.2 mph - N/A   Clear
7:53 PM 78.1 °F - 69.1 °F 74% 29.79 in 10.0 mi South 4.6 mph - N/A   Partly Cloudy
8:53 PM 77.0 °F - 69.1 °F 76% 29.80 in 10.0 mi South 4.6 mph - N/A   Clear
9:53 PM 75.9 °F - 69.1 °F 79% 29.81 in 10.0 mi SSW 6.9 mph - N/A   Partly Cloudy
10:37 PM 75.2 °F - 69.8 °F 83% 29.88 in 10.0 mi SSW 4.6 mph - N/A   Overcast
10:53 PM 75.0 °F - 70.0 °F 84% 29.80 in 10.0 mi South 6.9 mph - N/A   Mostly Cloudy
11:08 PM 75.2 °F - 69.8 °F 83% 29.87 in 10.0 mi South 8.1 mph - N/A   Mostly Cloudy
11:21 PM 75.2 °F - 69.8 °F 83% 29.89 in 10.0 mi SSW 6.9 mph - 0.00 in   Mostly Cloudy
11:32 PM 75.2 °F - 69.8 °F 83% 29.88 in 10.0 mi SSW 6.9 mph - 0.00 in   Overcast
11:41 PM 75.2 °F - 69.8 °F 83% 29.88 in 10.0 mi SSW 9.2 mph - 0.00 in   Overcast
11:53 PM 73.9 °F - 70.0 °F 87% 29.81 in 9.0 mi SSW 8.1 mph - 0.00 in   Overcast